Weather Roundup
Issued by NWS Springfield, MO

Home | Current Version | Previous Version | Text Only | Print | Product List | Glossary On
Versions: 1 2 3 4 5 6 7 8 9 10 11 12 13 14 15 16 17 18 19 20 21 22 23 24 25 26 27 28 29 30 31 32 33 34 35 36 37 38 39 40 41 42 43 44 45 46 47 48 49 50
000
NZUS99 KSGF 251207
HRRSGF

HOURLY WEATHER
NATIONAL WEATHER SERVICE SPRINGFIELD MO
600 AM CST SAT FEB 25 2017

......SGF CWA......

CITY           SKY/WX    TMP DP  RH WIND       PRES   REMARKS
SPRINGFIELD    PTCLDY    22  16  78 W9        30.09R WCI  12
6HR MIN TEMP:  22; 6HR MAX TEMP:  30;

JOPLIN         CLEAR     21  17  84 NW6       30.15R WCI  13
6HR MIN TEMP:  21; 6HR MAX TEMP:  30;

WEST PLAINS    PTCLDY    26  16  65 NW13G23   30.04R WCI  15
6HR MIN TEMP:  26; 6HR MAX TEMP:  34;

ROLLA          CLOUDY    25  15  66 NW15G29   30.01R WCI  13
6HR MIN TEMP:  25; 6HR MAX TEMP:  29;

OSAGE BEACH    CLOUDY    26  16  65 NW9       30.08S WCI  17
BRANSON        CLEAR     25  16  68 NW8       30.10R WCI  16

......SURROUNDING SGF CWA......

CITY           SKY/WX    TMP DP  RH WIND       PRES   REMARKS
CHANUTE        CLEAR     21  16  81 NW9       30.17R WCI  11
PARSONS        CLEAR     19  15  84 NW5       30.18S WCI  12
COFFEYVILLE    CLEAR     22  17  81 NW8       30.19S WCI  12
EMPORIA        CLEAR     19  15  84 W9        30.17R WCI   8
GROVE OK       CLEAR     27  21  80 NW9       30.18R WCI  17
ROGERS AR      CLEAR     22  17  81 NW6       30.12R WCI  14
SILOAM SPRINGS CLEAR     23  16  74 NW6       30.13R WCI  16
HARRISON AR    CLEAR     24  15  68 NW10      30.08R WCI  14
NEAR YELLVILLE CLEAR     28  12  50 NW12G17   30.08S WCI  18

......KANSAS AND MISSOURI......

CITY           SKY/WX    TMP DP  RH WIND       PRES   REMARKS
KANSAS CTY INT CLEAR     20  14  77 NW6       30.11R WCI  12
DOWNTOWN KC    CLEAR     25  14  63 N8        30.12R WCI  16
COLUMBIA       MOCLDY    26  17  68 NW16      30.04R WCI  14
SEDALIA        CLEAR     24  15  68 NW13      30.09R WCI  12
ST JOSEPH      CLEAR     20  15  81 NW9       30.13R WCI   9
ST LOUIS       FLURRIES  30  17  58 NW17G31   29.97R WCI  18
SPIRIT OF STL  CLOUDY    29  17  61 W17G32    29.99R WCI  17
KIRKSVILLE     CLEAR     19  14  81 W10       30.01R WCI   7
WICHITA        CLEAR     20  15  81 N9        30.18S WCI   9
TOPEKA         CLEAR     21  17  84 W8        30.16R WCI  11
OLATHE         CLEAR     21  17  84 NW8       30.11R WCI  11

......TENNESSEE......

CITY           SKY/WX    TMP DP  RH WIND       PRES   REMARKS
MEMPHIS        CLEAR     35  24  64 NW13      30.04R WCI  26
NASHVILLE      CLEAR     44  27  51 W10G22    29.89R

......ARKANSAS.......

CITY           SKY/WX    TMP DP  RH WIND       PRES   REMARKS
FAYETTEVILLE   CLEAR     22  16  78 NW6       30.13R WCI  14
FT SMITH       CLEAR     31  19  61 NW8       30.17R WCI  23
LITTLE ROCK    CLEAR     34  22  61 NW13      30.12R WCI  25

......OKLAHOMA.......

CITY           SKY/WX    TMP DP  RH WIND       PRES   REMARKS
TULSA          CLEAR     24  19  81 W7        30.21R WCI  16
PONCA CITY     CLEAR     22  17  81 NW7       30.22R WCI  13
MCALESTER      PTCLDY    29  21  72 N7        30.20R WCI  22
OKLAHOMA CITY  PTCLDY    24  18  77 N9        30.20R WCI  14

......IOWA............

CITY           SKY/WX    TMP DP  RH WIND       PRES   REMARKS
DES MOINES     MOCLDY    18  10  71 NW13G24   30.01R WCI   5
QUAD CITIES    PTCLDY    23  13  65 NW20G26   29.87R WCI   8

......ILLINOIS........

CITY           SKY/WX    TMP DP  RH WIND       PRES   REMARKS
QUINCY         PTCLDY    22  14  71 NW24G32   29.96R WCI   5
CHICAGO        CLOUDY    25  17  72 NW15      29.70R WCI  13



USA.gov is the U.S. government's official web portal to all federal, state and local government web resources and services.